Regional Weather Roundup
Issued by NWS

Home | Current Version | Previous Version | Text Only | Print | Product List | Glossary Off
Versions: 1 2 3 4 5 6 7 8 9 10 11 12 13 14 15 16 17 18 19 20 21 22 23 24 25 26 27 28 29 30 31 32 33 34 35 36 37 38 39 40 41 42 43 44 45 46 47 48 49 50

000
ASUS43 KOAX 170102
RWRNE

WEATHER ROUNDUP FOR NEBRASKA
NATIONAL WEATHER SERVICE OMAHA NE
800 PM CDT WED AUG 16 2017

NOTES: SATELLITE DATA IS BEING USED TO AUGMENT CLOUD COVER ABOVE
       12000 FEET.
       "FAIR" INDICATES FEW OR NO CLOUDS BELOW 12,000 FEET WITH NO
       SIGNIFICANT WEATHER AND/OR OBSTRUCTIONS TO VISIBILITY.


NEZ001>004-019>022-054>056-170200-
NEBRASKA PANHANDLE

CITY           SKY/WX    TMP DP  RH WIND       PRES   REMARKS
SCOTTSBLUFF    CLEAR     74  50  42 E5        30.05S
ALLIANCE       CLEAR     72  49  44 N5        30.04S
CHADRON        CLEAR     75  49  39 SE6       30.00S
GORDON         FAIR      71  52  51 N3        30.01S
SIDNEY         CLEAR     71  50  47 NE13      30.09R
$$

NEZ057>060-069>072-079>082-170200-
SOUTHWEST NEBRASKA

CITY           SKY/WX    TMP DP  RH WIND       PRES   REMARKS
NORTH PLATTE   CLEAR     70  57  63 NW6       29.98R
IMPERIAL       CLEAR     72  56  57 N9        30.02R
LEXINGTON      PTCLDY    69  60  72 NW8       29.96R
MCCOOK         CLEAR     72  61  68 N8        29.97R
OGALLALA       CLEAR     72  56  57 N6        30.02R
$$

NEZ005>010-023>029-035>040-094-170200-
NORTH CENTRAL NEBRASKA

CITY           SKY/WX    TMP DP  RH WIND       PRES   REMARKS
VALENTINE      CLEAR     73  51  46 N10       29.94S
AINSWORTH      CLEAR     69  59  71 NW9       29.93R
BROKEN BOW     CLEAR     69  62  78 W7        29.94R
O`NEILL        CLOUDY    65  63  93 NW13G18   29.89S
ORD            CLEAR     67  60  78 NW10      29.89R
THEDFORD       PTCLDY    72  54  53 NW9       29.97S
$$

NEZ041-046>049-061>064-073>077-083>087-170200-
SOUTH CENTRAL NEBRASKA

CITY           SKY/WX    TMP DP  RH WIND       PRES   REMARKS
GRAND ISLAND   MOCLDY    68  66  93 NW13      29.90R
AURORA         CLEAR     69  66  89 NW9       29.88R
HASTINGS       MOCLDY    70  63  78 NW13      29.90R
HEBRON         PTCLDY    73  64  72 NW6       29.85S
HOLDREGE       PTCLDY    69  62  79 NW8       29.93S
KEARNEY        CLOUDY    69  62  78 NW16      29.93R
YORK           CLEAR     70  64  83 NW9       29.85R
$$

NEZ011>018-030>034-042>045-170200-
NORTHEAST NEBRASKA

CITY           SKY/WX    TMP DP  RH WIND       PRES   REMARKS
NORFOLK        CLOUDY    66  61  84 NW13      29.80F
ALBION         CLOUDY    69  62  78 NW12G17   29.86R
BLAIR          CLOUDY    73  66  78 W5        29.79S
COLUMBUS       PTCLDY    69  64  84 NW16G23   29.84R
FREMONT        PTCLDY    71  67  85 W5        29.80S
TEKAMAH        CLEAR     72  64  76 W6        29.77R
WAYNE          CLOUDY    68  65  91 W10       29.80S
$$

NEZ050>053-065>068-078-088>093-170200-
SOUTHEAST NEBRASKA

CITY           SKY/WX    TMP DP  RH WIND       PRES   REMARKS
LINCOLN        MOCLDY    76  66  71 N10       29.81R
OMAHA EPPLEY   PTCLDY    75  65  70 NW8       29.78R
BEATRICE       MOCLDY    78  66  66 W6        29.82S
FALLS CITY     CLOUDY    79  66  64 NW5       29.79S
NEBRASKA CITY  CLOUDY    78  68  71 NW8       29.81R
PLATTSMOUTH    CLEAR     75  65  72 NW5       29.80R
$$

NEZ044-045-051>053-067-170200-
OMAHA AREA

CITY           SKY/WX    TMP DP  RH WIND       PRES   REMARKS
OMAHA EPPLEY   PTCLDY    75  65  70 NW8       29.78R
BLAIR          CLOUDY    73  66  78 W5        29.79S
FREMONT        PTCLDY    71  67  85 W5        29.80S
MILLARD        CLEAR     76  67  72 NW6       29.79S
OFFUTT AFB     CLEAR     77  64  64 NW10      29.78R
PLATTSMOUTH    CLEAR     75  65  72 NW5       29.80R
WAHOO          MOCLDY    73  64  73 NW8       29.80S
$$




USA.gov is the U.S. government's official web portal to all federal, state and local government web resources and services.